GACFB EGPO-EGEI

Flight info

Callsign GACFB
Flight time N/A
Altitude 5000
Route 5810N00619W DCT 5719N00552W DCT 5717N00544W DCT 5715N00549W
Aircraft C172/L-SDFG/C

Departure

Time 2026-05-06 16:49
Airport Stornoway Airport (EGPO)

Arrival

Time N/A
Airport Broadford Airstrip (EGEI)
Time Latitude Longitude Altitude Speed Heading
2026-05-06 16:40 58.21331 -6.32467 18 ft 0 kts 174°
2026-05-06 16:44 58.21327 -6.32466 18 ft 5 kts 173°
2026-05-06 16:44 58.21298 -6.32582 15 ft 22 kts 345°
2026-05-06 16:45 58.21449 -6.32407 19 ft 29 kts 63°
2026-05-06 16:45 58.21482 -6.32031 29 ft 27 kts 66°
2026-05-06 16:45 58.21607 -6.31909 28 ft 18 kts 333°
2026-05-06 16:45 58.21737 -6.32126 21 ft 31 kts 318°
2026-05-06 16:46 58.21928 -6.32443 15 ft 39 kts 319°
2026-05-06 16:46 58.22129 -6.32787 14 ft 34 kts 304°
2026-05-06 16:46 58.22176 -6.33024 14 ft 1 kts 287°
2026-05-06 16:46 58.22177 -6.33031 14 ft 0 kts 287°
2026-05-06 16:47 58.22188 -6.33116 14 ft 18 kts 281°
2026-05-06 16:47 58.22290 -6.33220 14 ft 21 kts 355°
2026-05-06 16:47 58.22378 -6.33257 14 ft 5 kts 198°
2026-05-06 16:48 58.22303 -6.33246 14 ft 38 kts 173°
2026-05-06 16:48 58.21875 -6.33181 133 ft 72 kts 175°
2026-05-06 16:48 58.21336 -6.33085 342 ft 85 kts 174°
2026-05-06 16:48 58.20701 -6.32948 528 ft 97 kts 173°
2026-05-06 16:49 58.20009 -6.32778 739 ft 102 kts 172°
2026-05-06 16:49 58.19293 -6.32587 941 ft 106 kts 172°
2026-05-06 16:49 58.18567 -6.32384 1141 ft 108 kts 172°
2026-05-06 16:49 58.17825 -6.32172 1342 ft 108 kts 171°
2026-05-06 16:50 58.17079 -6.31951 1542 ft 109 kts 170°
2026-05-06 16:50 58.16346 -6.31629 1741 ft 109 kts 166°
2026-05-06 16:50 58.15619 -6.31259 1941 ft 108 kts 165°
2026-05-06 16:50 58.14888 -6.30873 2143 ft 108 kts 164°
2026-05-06 16:51 58.14167 -6.30487 2342 ft 107 kts 164°
2026-05-06 16:51 58.13456 -6.30105 2540 ft 107 kts 164°
2026-05-06 16:51 58.12744 -6.29721 2740 ft 106 kts 164°
2026-05-06 16:51 58.12035 -6.29339 2939 ft 106 kts 164°
2026-05-06 16:52 58.11331 -6.28960 3138 ft 105 kts 164°
2026-05-06 16:52 58.10627 -6.28581 3338 ft 105 kts 164°
2026-05-06 16:52 58.09928 -6.28204 3537 ft 104 kts 164°
2026-05-06 16:52 58.09240 -6.27834 3735 ft 103 kts 164°
2026-05-06 16:53 58.08553 -6.27464 3931 ft 103 kts 164°
2026-05-06 16:53 58.07824 -6.27072 3996 ft 114 kts 164°
2026-05-06 16:53 58.07029 -6.26647 4002 ft 123 kts 164°
2026-05-06 16:53 58.06183 -6.26194 4001 ft 128 kts 164°
2026-05-06 16:54 58.05327 -6.25736 4000 ft 130 kts 164°
2026-05-06 16:54 58.04452 -6.25267 4000 ft 131 kts 164°
2026-05-06 16:54 58.03575 -6.24796 4000 ft 131 kts 164°
2026-05-06 16:54 58.02700 -6.24327 4000 ft 131 kts 164°
2026-05-06 16:55 58.01821 -6.23855 4000 ft 131 kts 164°
2026-05-06 16:55 58.00934 -6.23380 4000 ft 131 kts 164°
2026-05-06 16:55 58.00055 -6.22909 3999 ft 131 kts 164°
2026-05-06 16:55 57.99185 -6.22443 3999 ft 131 kts 164°
2026-05-06 16:56 57.98292 -6.21965 3999 ft 131 kts 164°
2026-05-06 16:56 57.97420 -6.21499 3999 ft 131 kts 164°
2026-05-06 16:56 57.96537 -6.21026 3999 ft 131 kts 164°
2026-05-06 16:56 57.95656 -6.20555 3999 ft 131 kts 164°
2026-05-06 16:57 57.94777 -6.20086 3999 ft 131 kts 164°
2026-05-06 16:57 57.93897 -6.19616 3999 ft 132 kts 164°
2026-05-06 16:57 57.93012 -6.19144 3999 ft 132 kts 164°
2026-05-06 16:57 57.92140 -6.18679 3999 ft 132 kts 164°
2026-05-06 16:58 57.91256 -6.18208 3999 ft 132 kts 164°
2026-05-06 16:58 57.90381 -6.17742 3999 ft 132 kts 164°
2026-05-06 16:58 57.89493 -6.17269 3999 ft 132 kts 164°
2026-05-06 16:58 57.88611 -6.16799 3999 ft 132 kts 164°
2026-05-06 16:59 57.87729 -6.16330 3999 ft 132 kts 164°
2026-05-06 16:59 57.86859 -6.15868 3999 ft 132 kts 164°
2026-05-06 16:59 57.85976 -6.15398 3999 ft 132 kts 164°
2026-05-06 16:59 57.85088 -6.14927 3999 ft 132 kts 164°
2026-05-06 17:00 57.84215 -6.14463 3999 ft 132 kts 164°
2026-05-06 17:00 57.83328 -6.13993 3999 ft 132 kts 164°
2026-05-06 17:00 57.82541 -6.13575 3999 ft 132 kts 164°
2026-05-06 17:00 57.81840 -6.13203 3999 ft 132 kts 164°
2026-05-06 17:01 57.80960 -6.12737 3999 ft 132 kts 164°
2026-05-06 17:01 57.80080 -6.12195 4000 ft 132 kts 161°
2026-05-06 17:01 57.79214 -6.11672 3999 ft 132 kts 163°
2026-05-06 17:01 57.78338 -6.11174 3999 ft 132 kts 163°
2026-05-06 17:02 57.77453 -6.10675 3999 ft 132 kts 163°
2026-05-06 17:02 57.76575 -6.10198 3999 ft 132 kts 164°
2026-05-06 17:02 57.75697 -6.09730 3999 ft 132 kts 164°
2026-05-06 17:02 57.74812 -6.09264 3999 ft 132 kts 164°
2026-05-06 17:03 57.73934 -6.08804 3999 ft 132 kts 164°
2026-05-06 17:03 57.73053 -6.08344 3999 ft 132 kts 164°
2026-05-06 17:03 57.72171 -6.07883 3999 ft 132 kts 164°
2026-05-06 17:03 57.71287 -6.07417 3999 ft 132 kts 164°
2026-05-06 17:04 57.70405 -6.06948 3999 ft 132 kts 164°
2026-05-06 17:04 57.69530 -6.06482 3999 ft 132 kts 164°
2026-05-06 17:04 57.68652 -6.06016 3999 ft 132 kts 164°
2026-05-06 17:04 57.67759 -6.05546 3999 ft 132 kts 164°
2026-05-06 17:05 57.66888 -6.05088 3999 ft 132 kts 164°
2026-05-06 17:05 57.66000 -6.04621 3999 ft 132 kts 164°
2026-05-06 17:05 57.65109 -6.04153 3910 ft 138 kts 164°
2026-05-06 17:05 57.64167 -6.03660 3738 ft 143 kts 164°
2026-05-06 17:06 57.63199 -6.03153 3564 ft 145 kts 164°
2026-05-06 17:06 57.62225 -6.02642 3389 ft 146 kts 164°
2026-05-06 17:06 57.61258 -6.02135 3216 ft 146 kts 164°
2026-05-06 17:06 57.60276 -6.01621 3048 ft 146 kts 164°
2026-05-06 17:07 57.59311 -6.01117 2947 ft 140 kts 164°
2026-05-06 17:07 57.58452 -6.00671 2840 ft 125 kts 164°